TimeCDT,TemperatureF,Dew PointF,Humidity,Sea Level PressureIn,VisibilityMPH,Wind Direction,Wind SpeedMPH,Gust SpeedMPH,PrecipitationIn,Events,Conditions,WindDirDegrees,DateUTC
12:13 AM,53.6,53.6,100,29.72,2.5,SW,12.7,18.4,0.09,Rain,Light Rain,220,2013-10-06 05:13:00
12:27 AM,55.4,53.6,94,29.73,3.0,WSW,4.6,-,0.15,Rain,Rain,240,2013-10-06 05:27:00
12:38 AM,55.4,53.6,94,29.73,5.0,WSW,3.5,-,0.15,Rain,Light Rain,250,2013-10-06 05:38:00
12:53 AM,55.0,54.0,96,29.73,4.0,Calm,Calm,-,0.15,Rain,Light Rain,0,2013-10-06 05:53:00
1:28 AM,55.4,53.6,94,29.71,10.0,Calm,Calm,-,0.01,,Overcast,0,2013-10-06 06:28:00
1:53 AM,55.0,54.0,96,29.70,5.0,WNW,3.5,-,0.01,,Overcast,300,2013-10-06 06:53:00
2:02 AM,53.6,53.6,100,29.71,6.0,West,3.5,-,N/A,,Overcast,260,2013-10-06 07:02:00
2:24 AM,53.6,53.6,100,29.69,10.0,Calm,Calm,-,N/A,,Overcast,0,2013-10-06 07:24:00
2:53 AM,54.0,53.1,97,29.70,10.0,SSW,3.5,-,N/A,,Overcast,210,2013-10-06 07:53:00
3:33 AM,53.6,53.6,100,29.68,8.0,WSW,4.6,-,N/A,,Overcast,240,2013-10-06 08:33:00
3:44 AM,53.6,53.6,100,29.68,6.0,WSW,4.6,-,N/A,,Overcast,250,2013-10-06 08:44:00
3:53 AM,53.1,53.1,100,29.69,5.0,SW,5.8,-,N/A,,Overcast,230,2013-10-06 08:53:00
4:53 AM,53.1,52.0,96,29.70,8.0,West,11.5,-,N/A,,Overcast,260,2013-10-06 09:53:00
5:02 AM,51.8,51.8,100,29.69,10.0,West,8.1,-,N/A,,Overcast,270,2013-10-06 10:02:00
5:51 AM,51.8,50.0,94,29.68,10.0,WSW,4.6,-,N/A,,Overcast,240,2013-10-06 10:51:00
5:53 AM,51.1,50.0,96,29.69,10.0,WSW,4.6,-,N/A,,Overcast,240,2013-10-06 10:53:00
6:53 AM,50.0,48.9,96,29.69,10.0,West,5.8,-,N/A,,Overcast,280,2013-10-06 11:53:00
7:48 AM,48.2,48.2,100,29.70,10.0,SW,5.8,-,N/A,,Overcast,230,2013-10-06 12:48:00
7:53 AM,48.9,48.0,97,29.71,10.0,SSW,6.9,-,N/A,,Overcast,210,2013-10-06 12:53:00
8:53 AM,48.9,46.9,93,29.70,10.0,SW,5.8,-,N/A,,Overcast,230,2013-10-06 13:53:00
9:22 AM,48.2,46.4,93,29.69,10.0,SW,6.9,-,N/A,,Overcast,230,2013-10-06 14:22:00
9:53 AM,51.1,46.0,83,29.70,10.0,WSW,6.9,-,N/A,,Mostly Cloudy,250,2013-10-06 14:53:00
10:40 AM,51.8,44.6,76,29.69,10.0,West,10.4,-,N/A,,Mostly Cloudy,280,2013-10-06 15:40:00
10:53 AM,53.1,45.0,74,29.70,10.0,West,12.7,-,N/A,,Mostly Cloudy,270,2013-10-06 15:53:00
11:17 AM,51.8,44.6,76,29.70,10.0,SW,12.7,18.4,N/A,,Partly Cloudy,220,2013-10-06 16:17:00
11:34 AM,53.6,44.6,72,29.70,10.0,West,10.4,-,N/A,,Mostly Cloudy,270,2013-10-06 16:34:00
11:53 AM,52.0,43.0,71,29.71,10.0,WSW,9.2,-,N/A,,Mostly Cloudy,250,2013-10-06 16:53:00
12:53 PM,54.0,43.0,66,29.70,10.0,West,9.2,-,N/A,,Overcast,280,2013-10-06 17:53:00
1:09 PM,53.6,42.8,67,29.68,10.0,West,10.4,-,N/A,,Overcast,270,2013-10-06 18:09:00
1:53 PM,54.0,39.9,59,29.68,10.0,West,8.1,-,N/A,,Clear,270,2013-10-06 18:53:00
2:53 PM,57.0,39.9,53,29.66,10.0,West,5.8,-,N/A,,Clear,270,2013-10-06 19:53:00
3:53 PM,57.9,41.0,53,29.66,10.0,WNW,5.8,-,N/A,,Clear,290,2013-10-06 20:53:00
4:53 PM,55.9,42.1,60,29.66,10.0,WNW,6.9,-,N/A,,Mostly Cloudy,300,2013-10-06 21:53:00
5:53 PM,54.0,44.1,69,29.67,10.0,WNW,4.6,-,N/A,,Overcast,290,2013-10-06 22:53:00
6:53 PM,53.1,45.0,74,29.68,10.0,WNW,4.6,-,N/A,,Overcast,290,2013-10-06 23:53:00
7:37 PM,53.6,46.4,77,29.68,10.0,NW,3.5,-,N/A,,Overcast,310,2013-10-07 00:37:00
7:53 PM,53.1,46.9,80,29.70,10.0,NW,6.9,-,N/A,,Overcast,320,2013-10-07 00:53:00
8:23 PM,51.8,46.4,82,29.69,10.0,NW,6.9,-,N/A,,Overcast,320,2013-10-07 01:23:00
8:41 PM,51.8,46.4,82,29.69,10.0,Variable,4.6,-,N/A,,Overcast,0,2013-10-07 01:41:00
8:53 PM,51.1,46.9,86,29.71,10.0,Variable,5.8,-,N/A,,Overcast,0,2013-10-07 01:53:00
9:07 PM,50.0,46.4,87,29.69,10.0,NNW,3.5,-,N/A,,Overcast,340,2013-10-07 02:07:00
9:53 PM,48.0,46.0,93,29.73,5.0,NNW,4.6,-,0.00,Rain,Light Rain,340,2013-10-07 02:53:00
10:10 PM,48.2,46.4,93,29.70,6.0,NW,4.6,-,0.00,Rain,Light Rain,320,2013-10-07 03:10:00
10:19 PM,48.2,46.4,93,29.70,9.0,NNW,3.5,-,0.00,,Overcast,340,2013-10-07 03:19:00
10:37 PM,46.4,46.4,100,29.70,10.0,NNW,5.8,-,0.00,,Overcast,330,2013-10-07 03:37:00
10:53 PM,48.0,46.0,93,29.71,10.0,NW,5.8,-,0.00,,Overcast,320,2013-10-07 03:53:00
11:53 PM,46.9,44.1,90,29.71,9.0,NNW,9.2,16.1,0.03,Rain,Light Rain,330,2013-10-07 04:53:00